Weather History for KBGR - November, 2011

Change the Weather History Date:

Wednesday, November 9, 2011

  Actual Average Record
Temperature  
Mean Temperature 52 °F 39 °F  
Max Temperature 62 °F 48 °F 65 °F (1938)
Min Temperature 42 °F 31 °F 17 °F (1992)
Degree Days  
Heating Degree Days 13 26  
Month to date heating degree days 202 219  
Since 1 July heating degree days 791 1045  
Cooling Degree Days 0 0  
Month to date cooling degree days 0 0  
Year to date cooling degree days 348 318  
Growing Degree Days 2 (Base 50)    
Moisture  
Dew Point 42 °F    
Average Humidity 68    
Maximum Humidity 93    
Minimum Humidity 42    
Precipitation  
Precipitation 0.00 in 0.14 in 1.09 in (1963)
Month to date precipitation T 1.24  
Year to date precipitation 38.28 35.49  
Snow  
Snow 0.00 in 0.10 in T in (2005)
Month to date snowfall 0.0 0.2  
Since 1 July snowfall 7.0 0.3  
Since 1 September snowfall 7.0 0.3  
Snow Depth 0.00 in    
Sea Level Pressure  
Sea Level Pressure 30.17 in    
Wind  
Wind Speed 4 mph (SSE)    
Max Wind Speed 15 mph    
Max Gust Speed 20 mph    
Visibility 10 miles    
Events      
T = Trace of Precipitation, MM = Missing Value Source: NWS Daily Summary

Daily Weather History Graph

Daily Weather History Graph

Search for Another Location

Airport or City:

Trip Planner

Search our weather history database for the weather conditions in past years. The results will help you decide how hot, cold, wet, or windy it might be!

Date:

Astronomy

Nov. 09, 2011 Rise Set
Actual Time 6:23 AM EST 4:13 PM EST
Civil Twilight 5:52 AM EST 4:44 PM EST
Nautical Twilight 5:17 AM EST 5:19 PM EST
Astronomical Twilight 4:43 AM EST 5:54 PM EST
Moon 3:23 PM EST (11/9) 5:15 AM EST (11/9)
Length of Visible Light 10h 52m
Length of Day
9h 49m
Waxing Gibbous, 99% of the Moon is Illuminated
Nov 9
Waxing Gibbous
Nov 10
Full
Nov 18
Last Quarter
Nov 25
New
Dec 2
First Quarter

Hourly Weather History & Observations

Time (EST) Temp. Windchill Dew Point Humidity Pressure Visibility Wind Dir Wind Speed Gust Speed Precip Events Conditions
12:53 AM 43.0 °F - 37.0 °F 80% 30.23 in 10.0 mi Calm Calm - N/A   Mostly Cloudy
1:53 AM 43.0 °F 41.3 °F 37.0 °F 80% 30.22 in 10.0 mi SSE 3.5 mph - N/A   Mostly Cloudy
2:53 AM 44.1 °F 42.5 °F 37.0 °F 76% 30.23 in 10.0 mi North 3.5 mph - N/A   Overcast
3:53 AM 44.1 °F - 37.9 °F 79% 30.23 in 10.0 mi Calm Calm - N/A   Overcast
4:53 AM 45.0 °F - 37.9 °F 76% 30.24 in 10.0 mi Calm Calm - N/A   Overcast
5:53 AM 44.1 °F - 37.9 °F 79% 30.23 in 10.0 mi Calm Calm - N/A   Mostly Cloudy
6:53 AM 42.8 °F - 37.4 °F 81% 30.24 in 10.0 mi Calm Calm - N/A   Mostly Cloudy
7:53 AM 46.9 °F - 39.0 °F 74% 30.25 in 10.0 mi Calm Calm - N/A   Mostly Cloudy
8:53 AM 51.8 °F - 37.4 °F 58% 30.23 in 10.0 mi SSE 3.5 mph - N/A   Scattered Clouds
9:53 AM 55.0 °F - 35.1 °F 47% 30.23 in 10.0 mi SE 5.8 mph - N/A   Scattered Clouds
10:53 AM 57.0 °F - 35.1 °F 44% 30.21 in 10.0 mi SSE 5.8 mph - N/A   Mostly Cloudy
11:53 AM 60.1 °F - 37.9 °F 44% 30.19 in 10.0 mi SSE 10.4 mph - N/A   Scattered Clouds
12:53 PM 61.0 °F - 43.0 °F 52% 30.17 in 10.0 mi SSE 8.1 mph - N/A   Mostly Cloudy
1:53 PM 61.0 °F - 46.0 °F 58% 30.15 in 10.0 mi SSE 10.4 mph - N/A   Mostly Cloudy
2:53 PM 61.0 °F - 48.0 °F 62% 30.12 in 10.0 mi South 12.7 mph - N/A   Partly Cloudy
3:53 PM 59.0 °F - 48.0 °F 67% 30.13 in 10.0 mi South 8.1 mph - N/A   Scattered Clouds
4:53 PM 55.9 °F - 48.0 °F 75% 30.13 in 10.0 mi SSE 8.1 mph - N/A   Scattered Clouds
5:53 PM 53.1 °F - 48.0 °F 83% 30.14 in 10.0 mi SSE 6.9 mph - N/A   Scattered Clouds
6:53 PM 51.1 °F - 46.9 °F 86% 30.13 in 10.0 mi SSE 3.5 mph - N/A   Mostly Cloudy
7:53 PM 50.0 °F - 46.9 °F 89% 30.13 in 10.0 mi South 3.5 mph - N/A   Partly Cloudy
8:53 PM 50.0 °F - 46.9 °F 89% 30.12 in 10.0 mi South 8.1 mph - N/A   Scattered Clouds
9:53 PM 50.0 °F - 46.9 °F 89% 30.10 in 10.0 mi South 8.1 mph - N/A   Partly Cloudy
10:53 PM 48.9 °F - 46.9 °F 93% 30.09 in 8.0 mi South 6.9 mph - N/A   Partly Cloudy
11:47 PM 48.2 °F - 46.4 °F 93% 30.08 in 6.0 mi SSE 8.1 mph - N/A   Mostly Cloudy
11:53 PM 50.0 °F - 48.0 °F 93% 30.08 in 6.0 mi SSE 9.2 mph - N/A   Mostly Cloudy